[[{"header":{"parameterUnit":"m.s-1","parameterCategory":1,"la1":30.2992,"la2":30.254,"lo1":-89.0895,"lo2":-89.0443,"dy":0.0025,"dx":0.0025,"nx":19,"ny":19,"refTime":"2026-05-16T03:00:00:Z","depth":0,"parameterNumber":2,"parameterNumberName":"U-component_of_WINDS"},"data":[0,0,0,-1.5216,-1.5216,-1.5184,-1.5183,-1.5157,-1.5156,0,0,0,0,0,0,0,0,0,0,0,-1.5235,-1.5235,-1.5216,-1.5216,-1.5184,-1.5183,-1.5157,-1.5156,0,0,0,0,0,0,0,0,0,0,0,-1.5235,-1.5235,-1.5235,-1.5215,-1.5184,-1.5183,-1.5157,-1.5175,0,0,0,0,0,0,0,0,0,0,-1.5204,-1.5231,-1.5235,-1.5235,-1.5215,-1.5184,-1.5183,-1.5176,-1.5174,-1.5177,0,-1.5184,0,-1.517,-1.5156,-1.5156,0,0,0,-1.5208,-1.5233,-1.5216,-1.5235,-1.5215,-1.5184,-1.5196,-1.5175,-1.5173,-1.5175,-1.5183,-1.5182,-1.5169,-1.5156,-1.5155,-1.52,-1.5201,0,0,-1.521,-1.5234,-1.5217,-1.5215,-1.5222,-1.5197,-1.5195,-1.5173,-1.5183,-1.5183,-1.5181,-1.5169,-1.5155,-1.5155,-1.52,-1.52,0,0,0,-1.522,-1.5236,-1.5219,-1.5216,-1.521,-1.5196,-1.5194,-1.5184,-1.5177,-1.518,-1.5169,-1.5155,-1.5155,-1.5199,-1.52,-1.5252,0,0,0,-1.5221,-1.5242,-1.522,-1.5234,-1.521,-1.5197,-1.5206,-1.5178,-1.5175,-1.5169,-1.5155,-1.5155,-1.5198,-1.52,-1.5249,-1.5273,0,0,0,-1.5234,-1.5243,-1.5242,-1.5236,-1.5223,-1.5196,-1.5187,-1.5177,-1.5168,-1.5156,-1.5155,-1.5198,-1.5199,-1.5247,-1.5268,-1.5292,0,0,0,-1.5255,-1.5288,-1.5243,-1.5275,-1.5224,-1.5229,-1.5187,-1.519,-1.5185,-1.5155,-1.5199,-1.52,-1.5246,-1.5266,-1.529,-1.5317,-1.5331,0,0,-1.531,-1.5295,-1.5312,-1.5271,-1.5291,-1.5232,-1.5259,-1.5231,-1.5207,-1.5204,-1.5204,-1.525,-1.5268,-1.5292,-1.5397,-1.5408,0,0,0,-1.5338,-1.5351,-1.5351,-1.5348,-1.5328,-1.5312,-1.5278,-1.5267,-1.5263,-1.521,-1.5264,-1.5274,-1.5286,-1.5299,-1.5308,-1.5317,-1.5206,-1.5206,-1.5206,-1.5452,-1.542,-1.5446,-1.541,-1.5407,-1.5372,-1.5366,-1.5346,-1.5314,-1.5327,-1.5326,-1.5394,-1.5409,-1.5416,-1.5426,-1.5337,-1.5337,-1.5337,-1.5338,-1.5531,-1.5544,-1.55,-1.551,-1.5476,-1.5483,-1.5449,-1.5426,-1.5428,-1.5392,-1.5401,-1.5366,-1.5429,-1.5436,-1.5341,-1.5341,-1.534,-1.534,-1.5339,-1.5603,-1.5604,-1.5591,-1.5583,-1.558,-1.5542,-1.5546,-1.5513,-1.5483,-1.5492,-1.5488,-1.5488,-1.5483,-1.5493,-1.5493,-1.5493,-1.5493,-1.5493,-1.5494,-1.5684,-1.5667,-1.5675,-1.5656,-1.5649,-1.5637,-1.5601,-1.5593,-1.5577,-1.5553,-1.5553,-1.552,-1.5441,-1.5422,-1.5497,-1.5497,-1.5496,-1.5496,-1.5495,-1.5778,-1.5751,-1.5763,-1.5757,-1.5732,-1.5732,-1.569,-1.5678,-1.5667,-1.5669,-1.5634,-1.558,-1.5563,-1.5555,-1.554,-1.564,-1.564,-1.564,-1.564,-1.584,-1.5827,-1.5832,-1.5824,-1.5813,-1.5776,-1.579,-1.5762,-1.5728,-1.5719,-1.5699,-1.5675,-1.5669,-1.5655,-1.5645,-1.563,-1.5752,-1.5752,-1.5752,-1.5896,-1.5881,-1.59,-1.5867,-1.5845,-1.5826,-1.5838,-1.583,-1.5786,-1.5756,-1.5711,-1.5707,-1.5668,-1.5657,-1.5628,-1.5613,-1.5585,0,0]},{"header":{"parameterUnit":"m.s-1","parameterCategory":1,"la1":30.2992,"la2":30.254,"lo1":-89.0895,"lo2":-89.0443,"dy":0.0025,"dx":0.0025,"nx":19,"ny":19,"refTime":"2026-05-16T03:00:00:Z","depth":0,"parameterNumber":3,"parameterNumberName":"V-component_of_WINDS"},"data":[0,0,0,4.2173,4.2174,4.218,4.218,4.2209,4.221,0,0,0,0,0,0,0,0,0,0,0,4.2186,4.2186,4.2173,4.2174,4.218,4.218,4.2209,4.221,0,0,0,0,0,0,0,0,0,0,0,4.2185,4.2186,4.2187,4.2174,4.218,4.218,4.2209,4.2197,0,0,0,0,0,0,0,0,0,0,4.2187,4.2212,4.2186,4.2187,4.2174,4.218,4.218,4.2196,4.2197,4.2216,0,4.2237,0,4.2224,4.2213,4.2213,0,0,0,4.2164,4.2211,4.22,4.2187,4.2174,4.218,4.2174,4.2196,4.2198,4.2218,4.2237,4.2237,4.2224,4.2213,4.2214,4.2355,4.2356,0,0,4.2163,4.2194,4.2198,4.2202,4.2203,4.2174,4.2175,4.2197,4.2219,4.2237,4.2238,4.2225,4.2214,4.2214,4.2354,4.2356,0,0,0,4.2169,4.2194,4.2182,4.2201,4.2201,4.2175,4.2175,4.2218,4.2212,4.2238,4.2225,4.2214,4.2215,4.2353,4.2355,4.244,0,0,0,4.2169,4.2198,4.2183,4.2202,4.2201,4.221,4.2196,4.221,4.2212,4.2225,4.2214,4.2215,4.2352,4.2354,4.2435,4.2476,0,0,0,4.218,4.2199,4.2205,4.2203,4.2207,4.2209,4.2203,4.221,4.2205,4.2213,4.2215,4.2351,4.2354,4.2431,4.2468,4.252,0,0,0,4.2202,4.2282,4.2207,4.2291,4.2207,4.2262,4.2203,4.2242,4.226,4.2214,4.2352,4.2355,4.2429,4.2463,4.2516,4.2569,4.2595,0,0,4.232,4.2297,4.2344,4.2277,4.2353,4.2259,4.2347,4.2334,4.2307,4.2341,4.2344,4.2437,4.2467,4.2519,4.273,4.275,0,0,0,4.2392,4.2426,4.2439,4.2458,4.245,4.2445,4.2416,4.2411,4.2437,4.2331,4.247,4.2487,4.2516,4.254,4.2558,4.258,4.2367,4.2367,4.2367,4.2603,4.2563,4.2638,4.2598,4.2617,4.2585,4.2595,4.2583,4.2538,4.2572,4.2581,4.2713,4.2743,4.2756,4.278,4.2607,4.2608,4.2608,4.2608,4.2771,4.2812,4.2749,4.2799,4.2756,4.2797,4.2769,4.2736,4.2767,4.2704,4.2727,4.266,4.278,4.2798,4.2614,4.2613,4.2612,4.2612,4.2611,4.2904,4.2916,4.2908,4.2929,4.2949,4.2907,4.2939,4.2899,4.2862,4.2886,4.289,4.2888,4.288,4.2891,4.2891,4.2892,4.2892,4.2892,4.2893,4.3044,4.3032,4.3064,4.3061,4.3067,4.3069,4.3036,4.304,4.3034,4.3002,4.3002,4.2953,4.2799,4.276,4.2899,4.2898,4.2897,4.2897,4.2896,4.3227,4.3178,4.3228,4.3234,4.3226,4.3247,4.3196,4.3207,4.3204,4.3221,4.3167,4.306,4.3034,4.302,4.2987,4.3177,4.3177,4.3177,4.3177,4.3338,4.332,4.3361,4.3371,4.3377,4.3335,4.3391,4.3367,4.3333,4.3329,4.3296,4.325,4.3237,4.3218,4.32,4.3169,4.34,4.34,4.3401,4.3447,4.3428,4.3484,4.345,4.344,4.3433,4.3483,4.3497,4.345,4.3409,4.3324,4.3315,4.324,4.3218,4.3174,4.3147,4.3089,0,0]}]]